Weather History for New Bern, NC

Change the Weather History Date:

Thursday, January 2, 2014

  Actual Average Record
Temperature  
Mean Temperature 50 °F 44 °F  
Max Temperature 53 °F 54 °F 80 °F (1952)
Min Temperature 46 °F 34 °F 17 °F (1963)
Degree Days  
Heating Degree Days 15 21  
Month to date heating degree days 37 42  
Since 1 July heating degree days 890 1036  
Cooling Degree Days 0 0  
Month to date cooling degree days 0 0  
Year to date cooling degree days 0 0  
Moisture  
Dew Point 48 °F    
Average Humidity 91    
Maximum Humidity 96    
Minimum Humidity 86    
Precipitation  
Precipitation 0.83 in 0.13 in 2.03 in (1979)
Month to date precipitation 0.84 0.25  
Year to date precipitation 0.84 0.25  
Snow  
Snow 0.00 in - - ()
Month to date snowfall 0.0  
Since 1 July snowfall T  
Snow Depth 0.00 in    
Sea Level Pressure  
Sea Level Pressure 29.81 in    
Wind  
Wind Speed 3 mph (WNW)    
Max Wind Speed 16 mph    
Max Gust Speed 23 mph    
Visibility 7 miles    
Events Rain    
T = Trace of Precipitation, MM = Missing Value Source: NWS Daily Summary

Daily Weather History Graph

Daily Weather History Graph

Search for Another Location

Airport:

Trip Planner

Search our weather history database for the weather conditions in past years. The results will help you decide how hot, cold, wet, or windy it might be!

Date:

Astronomy

Jan. 02, 2014 Rise Set
Actual Time 7:16 AM EST 5:08 PM EST
Civil Twilight 6:48 AM EST 5:36 PM EST
Nautical Twilight 6:16 AM EST 6:07 PM EST
Astronomical Twilight 5:46 AM EST 6:38 PM EST
Moon 8:00 AM EST (1/2) 6:57 PM EST (1/2)
Length of Visible Light 10h 47m
Length of Day
9h 51m
New Moon, 2% of the Moon is Illuminated
Jan 2
New Moon
Jan 7
First Quarter
Jan 15
Full
Jan 24
Last Quarter
Jan 30
New

Hourly Weather History & Observations

Time (EST) Temp. Dew Point Humidity Pressure Visibility Wind Dir Wind Speed Gust Speed Precip Events Conditions
12:54 AM 48.0 °F 44.1 °F 86% 30.14 in 10.0 mi Calm Calm - 0.03 in Rain Light Rain
1:27 AM 48.2 °F 44.6 °F 87% 30.12 in 10.0 mi Calm Calm - 0.00 in Rain Light Rain
1:54 AM 46.9 °F 43.0 °F 86% 30.12 in 10.0 mi Calm Calm - 0.00 in   Overcast
2:54 AM 46.9 °F 42.1 °F 83% 30.11 in 10.0 mi North 3.5 mph - 0.01 in Rain Light Rain
3:54 AM 46.0 °F 43.0 °F 89% 30.09 in 8.0 mi Calm Calm - 0.05 in Rain Light Rain
4:13 AM 46.4 °F 44.6 °F 93% 30.08 in 7.0 mi Calm Calm - 0.02 in Rain Light Rain
4:54 AM 46.9 °F 44.1 °F 90% 30.06 in 7.0 mi Calm Calm - 0.04 in Rain Light Rain
5:54 AM 46.9 °F 45.0 °F 93% 30.02 in 10.0 mi Calm Calm - 0.01 in   Overcast
6:54 AM 46.9 °F 45.0 °F 93% 30.02 in 7.0 mi Calm Calm - 0.00 in Rain Light Rain
7:54 AM 48.0 °F 46.0 °F 93% 30.01 in 4.0 mi Calm Calm - 0.03 in Rain Light Rain
8:54 AM 48.0 °F 46.0 °F 93% 29.97 in 4.0 mi ESE 5.8 mph - 0.02 in Rain Light Rain
9:54 AM 48.9 °F 46.9 °F 93% 29.97 in 7.0 mi Calm Calm - 0.01 in Rain Light Rain
10:14 AM 48.2 °F 46.4 °F 93% 29.97 in 9.0 mi Calm Calm - 0.00 in Rain Light Rain
10:51 AM 50.0 °F 46.4 °F 87% 29.93 in 10.0 mi Calm Calm - 0.01 in Rain Light Rain
10:54 AM 50.0 °F 48.0 °F 93% 29.93 in 10.0 mi Calm Calm - 0.01 in Rain Light Rain
11:35 AM 50.0 °F 48.2 °F 94% 29.89 in 8.0 mi North 3.5 mph - 0.00 in Rain Light Rain
11:54 AM 50.0 °F 48.0 °F 93% 29.89 in 9.0 mi Calm Calm - 0.01 in Rain Light Rain
12:54 PM 51.1 °F 48.0 °F 89% 29.83 in 9.0 mi Calm Calm - 0.01 in Rain Light Rain
1:54 PM 52.0 °F 48.9 °F 89% 29.79 in 10.0 mi Calm Calm - 0.01 in Rain Light Rain
2:54 PM 52.0 °F 50.0 °F 93% 29.77 in 7.0 mi South 3.5 mph - 0.05 in Rain Light Rain
3:54 PM 52.0 °F 50.0 °F 93% 29.74 in 3.0 mi Calm Calm - 0.07 in Rain Rain
4:24 PM 51.8 °F 50.0 °F 94% 29.72 in 6.0 mi Calm Calm - 0.03 in Rain Light Rain
4:54 PM 52.0 °F 50.0 °F 93% 29.69 in 5.0 mi Calm Calm - 0.06 in Rain Light Rain
5:10 PM 51.8 °F 50.0 °F 94% 29.69 in 6.0 mi Calm Calm - 0.02 in Rain Rain
5:41 PM 51.8 °F 50.0 °F 94% 29.66 in 4.0 mi Calm Calm - 0.05 in Rain Light Rain
5:54 PM 52.0 °F 50.0 °F 93% 29.66 in 5.0 mi Calm Calm - 0.05 in   Overcast
6:08 PM 51.8 °F 50.0 °F 94% 29.66 in 5.0 mi Calm Calm - N/A   Overcast
6:54 PM 52.0 °F 50.0 °F 93% 29.62 in 2.5 mi Calm Calm - 0.01 in   Overcast
7:05 PM 51.8 °F 50.0 °F 94% 29.61 in 4.0 mi Calm Calm - N/A   Overcast
7:54 PM 52.0 °F 50.0 °F 93% 29.58 in 2.0 mi Calm Calm - 0.01 in Rain Light Rain
8:36 PM 51.8 °F 50.0 °F 94% 29.56 in 2.5 mi WNW 8.1 mph - 0.07 in Rain Rain
8:54 PM 52.0 °F 50.0 °F 93% 29.57 in 2.0 mi NW 10.4 mph - 0.16 in Rain Heavy Rain
9:21 PM 53.6 °F 51.8 °F 94% 29.58 in 3.0 mi West 10.4 mph - 0.07 in Rain Light Rain
9:54 PM 53.1 °F 51.1 °F 93% 29.57 in 4.0 mi West 9.2 mph - 0.09 in Rain Light Rain
10:54 PM 53.1 °F 50.0 °F 89% 29.54 in 8.0 mi West 6.9 mph - 0.08 in Rain Light Rain
11:29 PM 53.6 °F 50.0 °F 88% 29.56 in 10.0 mi West 11.5 mph 19.6 mph 0.01 in   Overcast
11:36 PM 53.6 °F 48.2 °F 82% 29.56 in 10.0 mi WNW 11.5 mph - 0.01 in   Overcast
11:54 PM 53.1 °F 48.0 °F 83% 29.58 in 9.0 mi West 16.1 mph 23.0 mph 0.01 in   Overcast